Time,TemperatureF,DewpointF,PressureIn,WindDirection,WindDirectionDegrees,WindSpeedMPH,WindSpeedGustMPH,Humidity,HourlyPrecipIn,Conditions,Clouds,dailyrainin,SoftwareType,DateUTC
2013-07-06 00:01:00,53.0,51.0,-100.00,SE,138,1.0,2.0,94,0.00,,,0.00,,2013-07-06 07:01:00,
2013-07-06 00:12:00,53.0,51.0,-100.00,SE,138,1.0,2.0,94,0.00,,,0.00,,2013-07-06 07:12:00,
2013-07-06 00:22:00,53.0,51.0,-100.00,SE,138,1.0,2.0,94,0.00,,,0.00,,2013-07-06 07:22:00,
2013-07-06 00:52:00,52.0,51.0,-100.00,SSE,148,0.0,2.0,95,0.00,,,0.00,,2013-07-06 07:52:00,
2013-07-06 01:02:00,52.0,51.0,-100.00,SSE,148,0.0,2.0,95,0.00,,,0.00,,2013-07-06 08:02:00,
2013-07-06 01:11:00,52.0,51.0,-100.00,SSE,148,0.0,2.0,95,0.00,,,0.00,,2013-07-06 08:11:00,
2013-07-06 01:21:00,52.0,51.0,-100.00,SSE,148,0.0,2.0,95,0.00,,,0.00,,2013-07-06 08:21:00,
2013-07-06 01:54:00,51.0,50.0,-100.00,SE,135,1.0,2.0,96,0.00,,,0.00,,2013-07-06 08:54:00,
2013-07-06 02:02:00,51.0,50.0,-100.00,SE,135,1.0,2.0,96,0.00,,,0.00,,2013-07-06 09:02:00,
2013-07-06 02:11:00,51.0,50.0,-100.00,SE,135,1.0,2.0,96,0.00,,,0.00,,2013-07-06 09:11:00,
2013-07-06 02:22:00,51.0,50.0,-100.00,SE,135,1.0,2.0,96,0.00,,,0.00,,2013-07-06 09:22:00,
2013-07-06 02:53:00,50.0,49.0,-100.00,SE,138,0.0,3.0,98,0.00,,,0.00,,2013-07-06 09:53:00,
2013-07-06 03:02:00,50.0,49.0,-100.00,SE,138,0.0,3.0,98,0.00,,,0.00,,2013-07-06 10:02:00,
2013-07-06 03:11:00,50.0,49.0,-100.00,SE,138,0.0,3.0,98,0.00,,,0.00,,2013-07-06 10:11:00,
2013-07-06 03:22:00,50.0,49.0,-100.00,SE,138,0.0,3.0,98,0.00,,,0.00,,2013-07-06 10:22:00,
2013-07-06 03:53:00,50.0,49.0,-100.00,SE,145,2.0,3.0,97,0.00,,,0.00,,2013-07-06 10:53:00,
2013-07-06 04:01:00,50.0,49.0,-100.00,SE,145,2.0,3.0,97,0.00,,,0.00,,2013-07-06 11:01:00,
2013-07-06 04:11:00,50.0,49.0,-100.00,SE,145,2.0,3.0,97,0.00,,,0.00,,2013-07-06 11:11:00,
2013-07-06 04:21:00,50.0,49.0,-100.00,SE,145,2.0,3.0,97,0.00,,,0.00,,2013-07-06 11:21:00,
2013-07-06 04:53:00,49.0,48.0,-100.00,SSE,150,2.0,3.0,97,0.00,,,-99.99,,2013-07-06 11:53:00,
2013-07-06 05:01:00,49.0,48.0,-100.00,SSE,150,2.0,3.0,97,0.00,,,-99.99,,2013-07-06 12:01:00,
2013-07-06 05:11:00,49.0,48.0,-100.00,SSE,150,2.0,3.0,97,0.00,,,-99.99,,2013-07-06 12:11:00,
2013-07-06 05:21:00,49.0,48.0,-100.00,SSE,150,2.0,3.0,97,0.00,,,-99.99,,2013-07-06 12:21:00,
2013-07-06 05:52:00,49.0,48.0,-100.00,SSE,158,2.0,3.0,98,0.00,,,0.00,,2013-07-06 12:52:00,
2013-07-06 06:01:00,49.0,48.0,-100.00,SSE,158,2.0,3.0,98,0.00,,,0.00,,2013-07-06 13:01:00,
2013-07-06 06:11:00,49.0,48.0,-100.00,SSE,158,2.0,3.0,98,0.00,,,0.00,,2013-07-06 13:11:00,
2013-07-06 06:22:00,49.0,48.0,-100.00,SSE,158,2.0,3.0,98,0.00,,,0.00,,2013-07-06 13:22:00,
2013-07-06 07:02:00,50.0,49.0,-100.00,SE,136,1.0,3.0,97,0.00,,,0.00,,2013-07-06 14:02:00,
2013-07-06 07:11:00,50.0,49.0,-100.00,SE,136,1.0,3.0,97,0.00,,,0.00,,2013-07-06 14:11:00,
2013-07-06 07:22:00,50.0,49.0,-100.00,SE,136,1.0,3.0,97,0.00,,,0.00,,2013-07-06 14:22:00,
2013-07-06 07:53:00,51.0,50.0,-100.00,SE,134,0.0,2.0,97,0.00,,,0.00,,2013-07-06 14:53:00,
2013-07-06 08:02:00,51.0,50.0,-100.00,SE,134,0.0,2.0,97,0.00,,,0.00,,2013-07-06 15:02:00,
2013-07-06 08:12:00,51.0,50.0,-100.00,SE,134,0.0,2.0,97,0.00,,,0.00,,2013-07-06 15:12:00,
2013-07-06 08:22:00,51.0,50.0,-100.00,SE,134,0.0,2.0,97,0.00,,,0.00,,2013-07-06 15:22:00,
2013-07-06 08:53:00,55.0,52.0,-100.00,East,85,0.0,2.0,89,0.00,,,0.00,,2013-07-06 15:53:00,
2013-07-06 09:04:00,55.0,52.0,-100.00,East,85,0.0,2.0,89,0.00,,,0.00,,2013-07-06 16:04:00,
2013-07-06 09:13:00,55.0,52.0,-100.00,East,85,0.0,2.0,89,0.00,,,0.00,,2013-07-06 16:13:00,
2013-07-06 10:16:00,64.0,54.0,-100.00,East,97,0.0,3.0,71,0.00,,,0.00,,2013-07-06 17:16:00,
2013-07-06 10:25:00,64.0,54.0,-100.00,East,97,0.0,3.0,71,0.00,,,0.00,,2013-07-06 17:25:00,
2013-07-06 11:05:00,69.0,54.0,-100.00,NNW,335,2.0,5.0,59,0.00,,,0.00,,2013-07-06 18:05:00,
2013-07-06 11:16:00,69.0,54.0,-100.00,NNW,335,2.0,5.0,59,0.00,,,0.00,,2013-07-06 18:16:00,
2013-07-06 12:06:00,72.0,55.0,-100.00,West,266,2.0,7.0,55,0.00,,,0.00,,2013-07-06 19:06:00,
2013-07-06 12:25:00,72.0,55.0,-100.00,West,266,2.0,7.0,55,0.00,,,0.00,,2013-07-06 19:25:00,
2013-07-06 13:03:00,74.0,56.0,-100.00,West,259,2.0,8.0,53,0.00,,,0.00,,2013-07-06 20:03:00,
2013-07-06 13:25:00,74.0,56.0,-100.00,West,259,2.0,8.0,53,0.00,,,0.00,,2013-07-06 20:25:00,
2013-07-06 14:06:00,75.0,57.0,-100.00,WSW,241,3.0,9.0,53,0.00,,,0.00,,2013-07-06 21:06:00,
2013-07-06 14:14:00,75.0,57.0,-100.00,WSW,241,3.0,9.0,53,0.00,,,0.00,,2013-07-06 21:14:00,
2013-07-06 15:05:00,77.0,57.0,-100.00,WSW,254,3.0,9.0,50,0.00,,,0.00,,2013-07-06 22:05:00,
2013-07-06 15:24:00,77.0,57.0,-100.00,WSW,254,3.0,9.0,50,0.00,,,0.00,,2013-07-06 22:24:00,
2013-07-06 16:06:00,77.0,57.0,-100.00,SW,233,4.0,11.0,51,0.00,,,0.00,,2013-07-06 23:06:00,
2013-07-06 16:24:00,77.0,57.0,-100.00,SW,233,4.0,11.0,51,0.00,,,0.00,,2013-07-06 23:24:00,
2013-07-06 17:07:00,77.0,57.0,-100.00,WSW,239,5.0,10.0,51,0.00,,,0.00,,2013-07-07 00:07:00,
2013-07-06 17:23:00,77.0,57.0,-100.00,WSW,239,5.0,10.0,51,0.00,,,0.00,,2013-07-07 00:23:00,
2013-07-06 18:05:00,75.0,56.0,-100.00,SW,223,5.0,11.0,52,0.00,,,0.00,,2013-07-07 01:05:00,
2013-07-06 18:13:00,75.0,56.0,-100.00,SW,223,5.0,11.0,52,0.00,,,0.00,,2013-07-07 01:13:00,
2013-07-06 18:23:00,75.0,56.0,-100.00,SW,223,5.0,11.0,52,0.00,,,0.00,,2013-07-07 01:23:00,
2013-07-06 19:05:00,74.0,57.0,-100.00,SW,225,4.0,10.0,55,0.00,,,0.00,,2013-07-07 02:05:00,
2013-07-06 19:23:00,74.0,57.0,-100.00,SW,225,4.0,10.0,55,0.00,,,0.00,,2013-07-07 02:23:00,
2013-07-06 19:59:00,71.0,55.0,-100.00,WSW,237,3.0,9.0,58,0.00,,,0.00,,2013-07-07 02:59:00,
2013-07-06 20:05:00,71.0,55.0,-100.00,WSW,237,3.0,9.0,58,0.00,,,0.00,,2013-07-07 03:05:00,
2013-07-06 20:22:00,71.0,55.0,-100.00,WSW,237,3.0,9.0,58,0.00,,,0.00,,2013-07-07 03:22:00,
2013-07-06 21:01:00,64.0,52.0,-100.00,SW,236,2.0,7.0,66,0.00,,,0.00,,2013-07-07 04:01:00,
2013-07-06 21:11:00,64.0,52.0,-100.00,SW,236,2.0,7.0,66,0.00,,,0.00,,2013-07-07 04:11:00,
2013-07-06 21:21:00,64.0,52.0,-100.00,SW,236,2.0,7.0,66,0.00,,,0.00,,2013-07-07 04:21:00,
2013-07-06 21:51:00,61.0,52.0,-100.00,SE,132,0.0,4.0,73,0.00,,,0.00,,2013-07-07 04:51:00,
2013-07-06 22:01:00,61.0,52.0,-100.00,SE,132,0.0,4.0,73,0.00,,,0.00,,2013-07-07 05:01:00,
2013-07-06 22:11:00,61.0,52.0,-100.00,SE,132,0.0,4.0,73,0.00,,,0.00,,2013-07-07 05:11:00,
2013-07-06 22:21:00,61.0,52.0,-100.00,SE,132,0.0,4.0,73,0.00,,,0.00,,2013-07-07 05:21:00,
2013-07-06 22:51:00,58.0,52.0,-100.00,SE,135,1.0,3.0,81,0.00,,,0.00,,2013-07-07 05:51:00,
2013-07-06 23:01:00,58.0,52.0,-100.00,SE,135,1.0,3.0,81,0.00,,,0.00,,2013-07-07 06:01:00,
2013-07-06 23:11:00,58.0,52.0,-100.00,SE,135,1.0,3.0,81,0.00,,,0.00,,2013-07-07 06:11:00,
2013-07-06 23:21:00,58.0,52.0,-100.00,SE,135,1.0,3.0,81,0.00,,,0.00,,2013-07-07 06:21:00,
2013-07-06 23:52:00,56.0,52.0,-100.00,East,88,0.0,3.0,88,0.00,,,0.00,,2013-07-07 06:52:00,